Volver al catálogo

STARLINK-31691

ActivoComunicacionesVLEO
NORAD 59856·PAYLOAD·🇺🇸 United States

Lanzado May 23, 2024 desde Cape Canaveral Space Force Station

Loading…

Próximos Pases (próximas 24 horas)

TLE

ActualizadoSource: CelesTrak SupGP

Época: Sep 14, 2026, 22:32 UTC

1 59856C 24097X   26257.93937500  .00029374  00000+0  10639-2 0  2575
2 59856  43.0029 285.1636 0001523 268.4569 132.8076 15.27564231    19

Sigue STARLINK-31691 en tiempo real con AllMySat

Download on the App Store